Year,Month,Day,Hour,Minute,Value (Times are PST for temperature in C)
2010,05,01,08,12,7.30
2010,05,01,08,13,7.30
2010,05,01,08,14,7.30
2010,05,01,08,15,7.30
2010,05,01,08,16,7.30
2010,05,01,08,17,7.40
2010,05,01,08,18,7.40
2010,05,01,08,19,7.40
2010,05,01,08,20,7.40
2010,05,01,08,21,7.40
2010,05,01,08,22,7.50
2010,05,01,08,23,7.50
2010,05,01,08,24,7.60
2010,05,01,08,25,7.60
2010,05,01,08,26,7.60
2010,05,01,08,27,7.60
2010,05,01,08,28,7.50
2010,05,01,08,29,7.50
2010,05,01,08,30,7.40
2010,05,01,08,31,7.40
2010,05,01,08,32,7.40
2010,05,01,08,33,7.50
2010,05,01,08,34,7.50
2010,05,01,08,35,7.50
2010,05,01,08,36,7.60
2010,05,01,08,37,7.60
2010,05,01,08,38,7.60
2010,05,01,08,39,7.50
2010,05,01,08,40,7.50
2010,05,01,08,41,7.50
2010,05,01,08,42,7.40
2010,05,01,08,43,7.50
2010,05,01,08,44,7.50
2010,05,01,08,45,7.60
2010,05,01,08,46,7.60
2010,05,01,08,47,7.60
2010,05,01,08,48,7.60
2010,05,01,08,49,7.70
2010,05,01,08,50,7.70
2010,05,01,08,51,7.70
2010,05,01,08,52,7.70
2010,05,01,08,53,7.70
2010,05,01,08,54,7.80
2010,05,01,08,55,7.80
2010,05,01,08,56,7.80
2010,05,01,08,57,7.80
2010,05,01,08,58,7.90
2010,05,01,08,59,7.90
2010,05,01,09,00,7.80
2010,05,01,09,01,7.80
2010,05,01,09,02,7.80
2010,05,01,09,03,7.80
2010,05,01,09,04,7.80
2010,05,01,09,05,7.80
2010,05,01,09,06,7.80
2010,05,01,09,07,7.80
2010,05,01,09,08,7.80
2010,05,01,09,09,7.80
2010,05,01,09,10,7.90
2010,05,01,09,11,7.90
2010,05,01,09,12,8.00
2010,05,01,09,13,8.10
2010,05,01,09,14,8.10
2010,05,01,09,15,8.00
2010,05,01,09,16,8.00
2010,05,01,09,17,8.00
2010,05,01,09,18,8.00
2010,05,01,09,19,8.00
2010,05,01,09,20,8.00
2010,05,01,09,21,8.00
2010,05,01,09,22,8.10
2010,05,01,09,23,8.20
2010,05,01,09,24,8.20
2010,05,01,09,25,8.20
2010,05,01,09,26,8.20
2010,05,01,09,27,8.30
2010,05,01,09,28,8.40
2010,05,01,09,29,8.40
2010,05,01,09,30,8.40
2010,05,01,09,31,8.40
2010,05,01,09,32,8.40
2010,05,01,09,33,8.30
2010,05,01,09,34,8.30
2010,05,01,09,35,8.20
2010,05,01,09,36,8.20
2010,05,01,09,37,8.20
2010,05,01,09,38,8.20
2010,05,01,09,39,8.20
2010,05,01,09,40,8.20
2010,05,01,09,41,8.20
2010,05,01,09,42,8.20
2010,05,01,09,43,8.20
2010,05,01,09,44,8.20
2010,05,01,09,45,8.30
2010,05,01,09,46,8.40
2010,05,01,09,47,8.40
2010,05,01,09,48,8.50
2010,05,01,09,49,8.60
2010,05,01,09,50,8.60
2010,05,01,09,51,8.70
2010,05,01,09,52,8.70
2010,05,01,09,53,8.70
2010,05,01,09,54,8.80
2010,05,01,09,55,8.80
2010,05,01,09,56,8.70
2010,05,01,09,57,8.70
2010,05,01,09,58,8.70
2010,05,01,09,59,8.70
2010,05,01,10,00,8.70
2010,05,01,10,01,8.70
2010,05,01,10,02,8.70
2010,05,01,10,03,8.70
2010,05,01,10,04,8.70
2010,05,01,10,05,8.70
2010,05,01,10,06,8.70
2010,05,01,10,07,8.70
2010,05,01,10,08,8.70
2010,05,01,10,09,8.70
2010,05,01,10,10,8.70
2010,05,01,10,11,8.70
2010,05,01,10,12,8.70
2010,05,01,10,13,8.70
2010,05,01,10,14,8.70
2010,05,01,10,15,8.70
2010,05,01,10,16,8.70
2010,05,01,10,17,8.70
2010,05,01,10,18,8.70
2010,05,01,10,19,8.70
2010,05,01,10,20,8.70
2010,05,01,10,21,8.70
2010,05,01,10,22,8.80
2010,05,01,10,23,8.80
2010,05,01,10,24,8.90
2010,05,01,10,25,8.90
2010,05,01,10,26,9.00
2010,05,01,10,27,9.00
2010,05,01,10,28,9.10
2010,05,01,10,29,9.10
2010,05,01,10,30,9.20
2010,05,01,10,31,9.20
2010,05,01,10,32,9.20
2010,05,01,10,33,9.30
2010,05,01,10,34,9.30
2010,05,01,10,35,9.40
2010,05,01,10,36,9.40
2010,05,01,10,37,9.40
2010,05,01,10,38,9.50
2010,05,01,10,39,9.50
2010,05,01,10,40,9.50
2010,05,01,10,41,9.50
2010,05,01,10,42,9.50
2010,05,01,10,43,9.50
2010,05,01,10,44,9.50
2010,05,01,10,45,9.50
2010,05,01,10,46,9.50
2010,05,01,10,47,9.50
2010,05,01,10,48,9.50
2010,05,01,10,49,9.50
2010,05,01,10,50,9.50
2010,05,01,10,51,9.60
2010,05,01,10,52,9.60
2010,05,01,10,53,9.70
2010,05,01,10,54,9.70
2010,05,01,10,55,9.70
2010,05,01,10,56,9.70
2010,05,01,10,57,9.70
2010,05,01,10,58,9.70
2010,05,01,10,59,9.80
2010,05,01,11,00,9.80
2010,05,01,11,01,9.80
2010,05,01,11,02,9.80
2010,05,01,11,03,9.80
2010,05,01,11,04,9.90
2010,05,01,11,05,9.90
2010,05,01,11,06,9.90
2010,05,01,11,07,9.90
2010,05,01,11,08,10.00
2010,05,01,11,09,10.10
2010,05,01,11,10,10.10
2010,05,01,11,11,10.10
2010,05,01,11,12,10.10
2010,05,01,11,13,10.20
2010,05,01,11,14,10.20
2010,05,01,11,15,10.30
2010,05,01,11,16,10.30
2010,05,01,11,17,10.40
2010,05,01,11,18,10.40
2010,05,01,11,19,10.50
2010,05,01,11,20,10.60
2010,05,01,11,21,10.50
2010,05,01,11,22,10.40
2010,05,01,11,23,10.40
2010,05,01,11,24,10.40
2010,05,01,11,25,10.40
2010,05,01,11,26,10.40
2010,05,01,11,27,10.40
2010,05,01,11,28,10.40
2010,05,01,11,29,10.40
2010,05,01,11,30,10.40
2010,05,01,11,31,10.50
2010,05,01,11,32,10.60
2010,05,01,11,33,10.60
2010,05,01,11,34,10.60
2010,05,01,11,35,10.60
2010,05,01,11,36,10.60
2010,05,01,11,37,10.60
2010,05,01,11,38,10.70
2010,05,01,11,39,10.70
2010,05,01,11,40,10.80
2010,05,01,11,41,10.90
2010,05,01,11,42,10.90
2010,05,01,11,43,11.00
2010,05,01,11,44,11.10
2010,05,01,11,45,11.10
2010,05,01,11,46,11.10
2010,05,01,11,47,11.20
2010,05,01,11,48,11.30
2010,05,01,11,49,11.40
2010,05,01,11,50,11.40
2010,05,01,11,51,11.40
2010,05,01,11,52,11.60
2010,05,01,11,53,11.60
2010,05,01,11,54,11.60
2010,05,01,11,55,11.60
2010,05,01,11,56,11.50
2010,05,01,11,57,11.40
2010,05,01,11,58,11.40
2010,05,01,11,59,11.40
2010,05,01,12,00,11.50
2010,05,01,12,01,11.60
2010,05,01,12,02,11.60
2010,05,01,12,03,11.60
2010,05,01,12,04,11.60
2010,05,01,12,05,11.60
2010,05,01,12,06,11.70
2010,05,01,12,07,11.80
2010,05,01,12,08,11.80
2010,05,01,12,09,11.80
2010,05,01,12,10,11.80
2010,05,01,12,11,11.80
2010,05,01,12,12,11.80
2010,05,01,12,13,11.70
2010,05,01,12,14,11.60
2010,05,01,12,15,11.50
2010,05,01,12,16,11.40
2010,05,01,12,17,11.40
2010,05,01,12,18,11.40
2010,05,01,12,19,11.40
2010,05,01,12,20,11.40
2010,05,01,12,21,11.40
2010,05,01,12,22,11.40
2010,05,01,12,23,11.60
2010,05,01,12,24,11.50
2010,05,01,12,25,11.40
2010,05,01,12,26,11.40
2010,05,01,12,27,11.40
2010,05,01,12,28,11.40
2010,05,01,12,29,11.40
2010,05,01,12,30,11.40
2010,05,01,12,31,11.60
2010,05,01,12,32,11.60
2010,05,01,12,33,11.60
2010,05,01,12,34,11.60
2010,05,01,12,35,11.60
2010,05,01,12,36,11.50
2010,05,01,12,37,11.40
2010,05,01,12,38,11.40
2010,05,01,12,39,11.40
2010,05,01,12,40,11.40
2010,05,01,12,41,11.40
2010,05,01,12,42,11.40
2010,05,01,12,43,11.40
2010,05,01,12,44,11.60
2010,05,01,12,45,11.60
2010,05,01,12,46,11.60
2010,05,01,12,47,11.60
2010,05,01,12,48,11.60
2010,05,01,12,49,11.60
2010,05,01,12,50,11.60
2010,05,01,12,51,11.60
2010,05,01,12,52,11.60
2010,05,01,12,53,11.60
2010,05,01,12,54,11.60
2010,05,01,12,55,11.60
2010,05,01,12,56,11.60
2010,05,01,12,57,11.60
2010,05,01,12,58,11.70
2010,05,01,12,59,11.70
2010,05,01,13,00,11.80
2010,05,01,13,01,11.80
2010,05,01,13,02,11.80
2010,05,01,13,03,11.90
2010,05,01,13,04,11.90
2010,05,01,13,05,11.90
2010,05,01,13,06,12.00
2010,05,01,13,07,12.00
2010,05,01,13,08,12.10
2010,05,01,13,09,12.00
2010,05,01,13,10,12.00
2010,05,01,13,11,12.00
2010,05,01,13,12,12.10
2010,05,01,13,13,12.00
2010,05,01,13,14,12.00
2010,05,01,13,15,12.00
2010,05,01,13,16,12.00
2010,05,01,13,17,12.00
2010,05,01,13,18,12.00
2010,05,01,13,19,11.90
2010,05,01,13,20,11.90
2010,05,01,13,21,11.90
2010,05,01,13,22,11.90
2010,05,01,13,23,11.90
2010,05,01,13,24,11.90
2010,05,01,13,25,11.90
2010,05,01,13,26,12.00
2010,05,01,13,27,12.10
2010,05,01,13,28,12.10
2010,05,01,13,29,12.00
2010,05,01,13,30,12.00
2010,05,01,13,31,12.00
2010,05,01,13,32,12.00
2010,05,01,13,33,12.00
2010,05,01,13,34,12.00
2010,05,01,13,35,12.00
2010,05,01,13,36,12.00
2010,05,01,13,37,11.90
2010,05,01,13,38,11.90
2010,05,01,13,39,11.80
2010,05,01,13,40,11.90
2010,05,01,13,41,11.90
2010,05,01,13,42,11.90
2010,05,01,13,43,11.90
2010,05,01,13,44,12.00
2010,05,01,13,45,12.20
2010,05,01,13,46,12.30
2010,05,01,13,47,12.40
2010,05,01,13,48,12.50
2010,05,01,13,49,12.50
2010,05,01,13,50,12.50
2010,05,01,13,51,12.50
2010,05,01,13,52,12.60
2010,05,01,13,53,12.60
2010,05,01,13,54,12.60
2010,05,01,13,55,12.60
2010,05,01,13,56,12.70
2010,05,01,13,57,12.70
2010,05,01,13,58,12.70
2010,05,01,13,59,12.70
2010,05,01,14,00,12.70
2010,05,01,14,01,12.70
2010,05,01,14,02,12.70
2010,05,01,14,03,12.70
2010,05,01,14,04,12.70
2010,05,01,14,05,12.80
2010,05,01,14,06,12.80
2010,05,01,14,07,12.80
2010,05,01,14,08,12.80
2010,05,01,14,09,12.90
2010,05,01,14,10,13.00
2010,05,01,14,11,13.00
2010,05,01,14,12,13.00
2010,05,01,14,13,12.90
2010,05,01,14,14,12.90
2010,05,01,14,15,12.90
2010,05,01,14,16,12.90
2010,05,01,14,17,12.90
2010,05,01,14,18,12.90
2010,05,01,14,19,12.90
2010,05,01,14,20,12.80
2010,05,01,14,21,12.80
2010,05,01,14,22,12.80
2010,05,01,14,23,12.80
2010,05,01,14,24,12.80
2010,05,01,14,25,12.70
2010,05,01,14,26,12.70
2010,05,01,14,27,12.70
2010,05,01,14,28,12.70
2010,05,01,14,29,12.80
2010,05,01,14,30,12.80
2010,05,01,14,31,13.00
2010,05,01,14,32,13.10
2010,05,01,14,33,13.20
2010,05,01,14,34,13.30
2010,05,01,14,35,13.30
2010,05,01,14,36,13.40
2010,05,01,14,37,13.30
2010,05,01,14,38,13.30
2010,05,01,14,39,13.30
2010,05,01,14,40,13.20
2010,05,01,14,41,13.00
2010,05,01,14,42,13.00
2010,05,01,14,43,12.90
2010,05,01,14,44,12.80
2010,05,01,14,45,12.80
2010,05,01,14,46,12.80
2010,05,01,14,47,12.80
2010,05,01,14,48,12.80
2010,05,01,14,49,12.80
2010,05,01,14,50,12.80
2010,05,01,14,51,12.80
2010,05,01,14,52,12.80
2010,05,01,14,53,12.90
2010,05,01,14,54,12.80
2010,05,01,14,55,12.80
2010,05,01,14,56,12.80
2010,05,01,14,57,12.80
2010,05,01,14,58,12.80
2010,05,01,14,59,12.70
2010,05,01,15,00,12.60
2010,05,01,15,01,12.50
2010,05,01,15,02,12.50
2010,05,01,15,03,12.60
2010,05,01,15,04,12.60
2010,05,01,15,05,12.60
2010,05,01,15,06,12.70
2010,05,01,15,07,12.70
2010,05,01,15,08,12.70
2010,05,01,15,09,12.80
2010,05,01,15,10,12.80
2010,05,01,15,11,12.80
2010,05,01,15,12,12.90
2010,05,01,15,13,12.90
2010,05,01,15,14,13.00
2010,05,01,15,15,13.10
2010,05,01,15,16,13.10
2010,05,01,15,17,13.10
2010,05,01,15,18,13.00
2010,05,01,15,19,12.90
2010,05,01,15,20,12.80
2010,05,01,15,21,12.80
2010,05,01,15,22,12.80
2010,05,01,15,23,12.90
2010,05,01,15,24,12.90
2010,05,01,15,25,13.00
2010,05,01,15,26,13.00
2010,05,01,15,27,13.00
2010,05,01,15,28,12.90
2010,05,01,15,29,12.80
2010,05,01,15,30,12.80
2010,05,01,15,31,12.80
2010,05,01,15,32,12.80
2010,05,01,15,33,12.90
2010,05,01,15,34,12.90
2010,05,01,15,35,13.00
2010,05,01,15,36,13.10
2010,05,01,15,37,13.10
2010,05,01,15,38,13.10
2010,05,01,15,39,13.10
2010,05,01,15,40,13.10
2010,05,01,15,41,13.20
2010,05,01,15,42,13.20
2010,05,01,15,43,13.20
2010,05,01,15,44,13.20
2010,05,01,15,45,13.10
2010,05,01,15,46,13.10
2010,05,01,15,47,13.10
2010,05,01,15,48,13.00
2010,05,01,15,49,13.10
2010,05,01,15,50,13.10
2010,05,01,15,51,13.10
2010,05,01,15,52,13.10
2010,05,01,15,53,13.10
2010,05,01,15,54,13.00
2010,05,01,15,55,12.90
2010,05,01,15,56,12.90
2010,05,01,15,57,12.80
2010,05,01,15,58,12.80
2010,05,01,15,59,12.80
2010,05,01,16,00,12.80
2010,05,01,16,01,12.80
2010,05,01,16,02,12.70
2010,05,01,16,03,12.70
2010,05,01,16,04,12.70
2010,05,01,16,05,12.70
2010,05,01,16,06,12.70
2010,05,01,16,07,12.70
2010,05,01,16,08,12.60
2010,05,01,16,09,12.60
2010,05,01,16,10,12.70
2010,05,01,16,11,12.80
2010,05,01,16,12,12.90
2010,05,01,16,13,12.90
2010,05,01,16,14,12.90
2010,05,01,16,15,12.90
2010,05,01,16,16,13.00
2010,05,01,16,17,13.00
2010,05,01,16,18,13.00
2010,05,01,16,19,13.00
2010,05,01,16,20,12.90
2010,05,01,16,21,12.80
2010,05,01,16,22,12.80
2010,05,01,16,23,12.80
2010,05,01,16,24,12.80
2010,05,01,16,25,12.80
2010,05,01,16,26,12.80
2010,05,01,16,27,12.80
2010,05,01,16,28,12.80
2010,05,01,16,29,12.90
2010,05,01,16,30,12.90
2010,05,01,16,31,13.00
2010,05,01,16,32,13.10
2010,05,01,16,33,13.10
2010,05,01,16,34,13.20
2010,05,01,16,35,13.30
2010,05,01,16,36,13.30
2010,05,01,16,37,13.30
2010,05,01,16,38,13.30
2010,05,01,16,39,13.30
2010,05,01,16,40,13.20
2010,05,01,16,41,13.10
2010,05,01,16,42,13.10
2010,05,01,16,43,13.00
2010,05,01,16,44,13.00
2010,05,01,16,45,13.00
2010,05,01,16,46,13.00
2010,05,01,16,47,13.00
2010,05,01,16,48,13.00
2010,05,01,16,49,13.10
2010,05,01,16,50,13.10
2010,05,01,16,51,13.10
2010,05,01,16,52,13.20
2010,05,01,16,53,13.20
2010,05,01,16,54,13.20
2010,05,01,16,55,13.30
2010,05,01,16,56,13.30
2010,05,01,16,57,13.30
2010,05,01,16,58,13.20
2010,05,01,16,59,13.20
2010,05,01,17,00,13.30
2010,05,01,17,01,13.20
2010,05,01,17,02,13.10
2010,05,01,17,03,13.10
2010,05,01,17,04,13.10
2010,05,01,17,05,13.10
2010,05,01,17,06,13.10
2010,05,01,17,07,13.10
2010,05,01,17,08,13.10
2010,05,01,17,09,13.00
2010,05,01,17,10,13.00
2010,05,01,17,11,13.00
2010,05,01,17,12,13.00
2010,05,01,17,13,13.00
2010,05,01,17,14,12.90
2010,05,01,17,15,12.80
2010,05,01,17,16,12.80
2010,05,01,17,17,12.80
2010,05,01,17,18,12.80
2010,05,01,17,19,12.80
2010,05,01,17,20,12.90
2010,05,01,17,21,13.00
2010,05,01,17,22,13.10
2010,05,01,17,23,13.10
2010,05,01,17,24,13.10
2010,05,01,17,25,13.00
2010,05,01,17,26,13.10
2010,05,01,17,27,13.20
2010,05,01,17,28,13.30
2010,05,01,17,29,13.30
2010,05,01,17,30,13.30
2010,05,01,17,31,13.20
2010,05,01,17,32,13.20
2010,05,01,17,33,13.10
2010,05,01,17,34,13.10
2010,05,01,17,35,13.10
2010,05,01,17,36,13.10
2010,05,01,17,37,13.10
2010,05,01,17,38,13.00
2010,05,01,17,39,12.90
2010,05,01,17,40,12.80
2010,05,01,17,41,12.80
2010,05,01,17,42,12.70
2010,05,01,17,43,12.70
2010,05,01,17,44,12.60
2010,05,01,17,45,12.60
2010,05,01,17,46,12.60
2010,05,01,17,47,12.50
2010,05,01,17,48,12.50
2010,05,01,17,49,12.50
2010,05,01,17,50,12.50
2010,05,01,17,51,12.30
2010,05,01,17,52,12.30
2010,05,01,17,53,12.30
2010,05,01,17,54,12.20
2010,05,01,17,55,12.20
2010,05,01,17,56,12.20
2010,05,01,17,57,12.10
2010,05,01,17,58,12.10
2010,05,01,17,59,12.10
2010,05,01,18,00,12.00
2010,05,01,18,01,11.90
2010,05,01,18,02,11.80
2010,05,01,18,03,11.80
2010,05,01,18,04,11.80
2010,05,01,18,05,11.80
2010,05,01,18,06,11.80
2010,05,01,18,07,11.80
2010,05,01,18,08,11.90
2010,05,01,18,09,11.90
2010,05,01,18,10,11.90
2010,05,01,18,11,11.90
2010,05,01,18,12,11.90
2010,05,01,18,13,11.90
2010,05,01,18,14,11.90
2010,05,01,18,15,11.80
2010,05,01,18,16,11.80
2010,05,01,18,17,11.70
2010,05,01,18,18,11.70
2010,05,01,18,19,11.70
2010,05,01,18,20,11.70
2010,05,01,18,21,11.70
2010,05,01,18,22,11.70
2010,05,01,18,23,11.70
2010,05,01,18,24,11.70
2010,05,01,18,25,11.70
2010,05,01,18,26,11.70
2010,05,01,18,27,11.80
2010,05,01,18,28,11.80
2010,05,01,18,29,11.80
2010,05,01,18,30,11.70
2010,05,01,18,31,11.70
2010,05,01,18,32,11.60
2010,05,01,18,33,11.60
2010,05,01,18,34,11.60
2010,05,01,18,35,11.50
2010,05,01,18,36,11.40
2010,05,01,18,37,11.40
2010,05,01,18,38,11.40
2010,05,01,18,39,11.40
2010,05,01,18,40,11.40
2010,05,01,18,41,11.40
2010,05,01,18,42,11.40
2010,05,01,18,43,11.40
2010,05,01,18,44,11.40
2010,05,01,18,45,11.40
2010,05,01,18,46,11.30
2010,05,01,18,47,11.30
2010,05,01,18,48,11.20
2010,05,01,18,49,11.20
2010,05,01,18,50,11.10
2010,05,01,18,51,11.10
2010,05,01,18,52,11.10
2010,05,01,18,53,11.10
2010,05,01,18,54,11.10
2010,05,01,18,55,11.10
2010,05,01,18,56,11.10
2010,05,01,18,57,11.10
2010,05,01,18,58,11.10
2010,05,01,18,59,11.10
2010,05,01,19,00,11.00
2010,05,01,19,01,10.90
2010,05,01,19,02,10.90
2010,05,01,19,03,10.90
2010,05,01,19,04,10.90
2010,05,01,19,05,10.80
2010,05,01,19,06,10.80
2010,05,01,19,07,10.80
2010,05,01,19,08,10.80
2010,05,01,19,09,10.80
2010,05,01,19,10,10.80
2010,05,01,19,11,10.80
2010,05,01,19,12,10.80
2010,05,01,19,13,10.80
2010,05,01,19,14,10.80
2010,05,01,19,15,10.70
2010,05,01,19,16,10.70
2010,05,01,19,17,10.70
2010,05,01,19,18,10.70
2010,05,01,19,19,10.70
2010,05,01,19,20,10.70
2010,05,01,19,21,10.70
2010,05,01,19,22,10.70
2010,05,01,19,23,10.70
2010,05,01,19,24,10.70
2010,05,01,19,25,10.70
2010,05,01,19,26,10.70
